Location: Makahika
(40.6333°S, 175.4333°E)
Time: 09:03:51
(UTC+00:00)

Daily predictions for brighter satellites

Satellite Brightness Start Highest point End
(mag) Time Altitude Azimuth Time Altitude Azimuth Time Altitude Azimuth
Cosmos 2278 Rocket 4.2 14:05:11 23° S 14:05:11 23° S 14:07:18 10° SSE
ATLAS CENTAUR R/B 4.1 14:02:19 10° SW 14:11:40 40° SSE 14:11:47 40° SSE
Cosmos 2369 Rocket 4.2 14:18:38 20° E 14:18:38 20° E 14:22:07 10° SE
Cosmos 1943 Rocket 3.7 14:20:42 32° SE 14:20:42 32° SE 14:23:45 10° SSE
ARIANE 5 R/B 3.5 14:52:57 43° SE 14:52:57 43° SE 14:57:07 10° S
Cosmos 1727 Rocket 4.2 15:05:00 64° NE 15:05:36 68° E 15:11:50 10° SSE
ATLAS 2AS CENTAUR R/B 3.4 15:14:46 35° NNE 15:16:30 43° ENE 15:22:38 10° SE
Envisat 4.0 15:15:13 10° NE 15:20:04 45° ESE 15:24:58 10° S
Lacrosse 5 4.4 15:19:58 10° SSW 15:23:23 17° SSE 15:26:47 10° ESE
Okean 3 Rocket 4.3 15:30:25 49° S 15:30:25 49° S 15:33:46 10° S
NOSS 3-4 (A) 4.5 15:27:56 44° WSW 15:29:33 49° SW 15:37:17 10° SSE
NOSS 3-4 (C) 4.5 15:28:01 44° W 15:29:38 49° SW 15:37:22 10° SSE
Cosmos 1656 Rocket 3.6 15:29:07 67° NNE 15:29:41 73° ENE 15:35:10 10° SSE
Cosmos 1408 Rocket 4.1 15:32:14 54° ENE 15:32:28 55° E 15:36:51 10° SSE
Cosmos 1900 4.3 15:34:35 74° S 15:34:35 74° S 15:39:06 10° SSE
CZ-2D R/B 4.2 15:38:28 48° S 15:38:28 48° S 15:41:42 10° SSW
Cosmos 192 4.4 15:32:40 10° SSW 15:37:41 77° ESE 15:42:38 10° NNE
CZ-2C R/B 3.7 15:36:25 10° NNE 15:41:21 52° ESE 15:46:08 10° S
Cosmos 1500 4.5 15:44:38 33° S 15:44:38 33° S 15:46:50 10° S
SL-16 R/B 2.4 15:37:30 10° S 15:43:45 72° WSW 15:45:17 52° NW
YAOGAN 11 4.1 15:40:54 10° SSE 15:45:20 77° ENE 15:45:44 70° NNE
RESURS DK-1 2.4 15:45:53 74° ESE 15:45:53 74° ESE 15:49:47 10° SSE
Cosmos 1867 4.3 15:45:07 29° N 15:47:25 47° ENE 15:52:36 10° SE
Cosmos 1331 Rocket 3.8 15:42:48 10° SSW 15:48:05 71° WNW 15:49:41 44° N
Meteor 1-19 Rocket 4.5 15:45:12 10° S 15:51:10 73° E 15:56:52 10° NNE
Okean 1 4.0 15:47:19 10° S 15:51:19 55° E 15:55:14 10° NNE
SL-4 R/B 2.5 15:52:19 48° S 15:52:19 48° S 15:55:45 10° SE
Cosmos 1544 3.7 15:55:38 45° NE 15:56:20 54° E 15:59:56 10° SSE
UNK 4.2 15:52:41 10° S 15:56:44 45° SW 15:56:44 45° SW
Cosmos 1459 Rocket 3.9 15:51:25 10° S 15:57:38 87° W 16:03:53 10° N
Genesis I 3.1 15:57:35 68° S 15:57:59 78° ESE 16:01:48 10° NE
Cosmos 1110 Rocket 4.1 15:53:30 10° SSW 15:58:40 51° WNW 15:58:40 51° WNW
Cosmos 389 Rocket 4.0 16:01:04 26° SSW 16:01:04 26° SSW 16:02:46 10° S
Cosmos 2369 Rocket 2.3 16:00:27 46° WNW 16:01:35 55° WSW 16:07:10 10° SSE
ATLAS 3B R/B 4.4 15:56:04 10° SSW 16:01:47 29° SE 16:07:17 10° E
Cosmos 1943 Rocket 3.7 16:02:14 21° SW 16:02:22 21° SW 16:06:34 10° S
Cosmos 1269 Rocket 4.3 15:59:32 23° N 16:02:51 66° ENE 16:08:09 10° SSE
Cosmos 1802 Rocket 4.1 15:56:52 10° S 16:03:23 83° E 16:09:51 10° N
CZ-2C R/B 3.3 16:02:25 10° NNE 16:06:22 61° ESE 16:10:25 10° S
ISS -1.8 16:06:54 20° SSW 16:06:57 20° SSW 16:09:35 10° SSE
Cosmos 1515 Rocket 3.5 16:04:32 10° SSW 16:08:55 63° W 16:10:23 39° NNW
Cosmos 1805 Rocket 4.1 16:06:56 10° N 16:11:09 58° E 16:15:29 10° SSE
Cosmos 1000 Rocket 4.5 16:08:10 30° NNW 16:11:11 59° W 16:17:22 10° S
Spot 4 Rocket 4.0 16:08:13 10° N 16:13:20 63° WNW 16:18:31 10° SSW
Cosmos 1725 Rocket 4.1 16:08:06 10° S 16:14:25 77° E 16:20:42 10° N
Cosmos 1315 Rocket 4.3 16:18:05 22° SW 16:18:05 22° SW 16:20:17 10° SSW
H-2A R/B 2.5 16:15:27 10° N 16:19:12 77° WNW 16:23:04 10° SSW
USA 215 3.9 16:13:32 10° SE 16:19:59 52° NE 16:25:53 12° NNW
Meteor 1-27 Rocket 4.3 16:17:14 10° SSW 16:22:09 32° W 16:23:04 31° WNW
Cosmos 2123 Rocket 4.0 16:16:41 10° NNW 16:23:01 76° W 16:29:28 10° S
Elektron 1 4.0 16:24:46 47° WNW 16:25:26 60° SW 16:28:22 10° SSE
CZ-4B R/B 3.6 16:20:59 10° NNE 16:26:12 80° ESE 16:31:22 10° SSW
Cosmos 2173 Rocket 4.2 16:21:38 10° SSW 16:27:46 49° W 16:33:46 10° NNW
ARIANE 5 R/B 4.1 16:33:16 17° WSW 16:33:16 17° WSW 16:35:14 10° SW
Cosmos 1743 Rocket 3.6 16:29:32 21° NNW 16:32:20 58° W 16:36:42 10° S
Meteor 1-18 Rocket 4.3 16:27:01 10° S 16:33:04 84° W 16:38:59 10° N
H-2A R/B 4.3 16:29:20 10° NE 16:33:45 28° ESE 16:38:06 10° S
CZ-2C R/B 2.6 16:32:42 22° NNW 16:34:22 29° NNE 16:37:58 10° ENE
Cosmos 1378 3.4 16:34:03 10° SSW 16:37:37 43° W 16:41:06 10° NNW
Cosmos 1939 Rocket 4.4 16:34:28 10° NE 16:38:06 38° ESE 16:41:46 10° S
Cosmos 1500 Rocket 4.0 16:38:17 21° NW 16:40:49 41° WSW 16:45:05 10° S
PSLV R/B 3.7 16:38:11 10° N 16:42:15 46° W 16:46:22 10° SSW
Helios 1A 3.5 16:41:46 10° S 16:45:45 40° WSW 16:48:35 17° NW
Sich 1 3.0 16:45:17 10° NNW 16:49:33 62° W 16:53:54 10° S
Cosmos 1992 Rocket 4.0 16:45:31 10° SSW 16:50:51 89° ESE 16:56:05 10° NNE
SL-27 R/B 4.4 16:48:42 10° S 16:51:50 32° ESE 16:54:59 10° NE
Cosmos 1833 4.2 16:47:02 10° SSW 16:52:33 56° WNW 16:58:02 10° N
Cosmos 1707 Rocket 4.2 16:48:54 10° S 16:53:25 62° E 16:57:51 10° NNE
Cosmos 1666 4.3 16:53:48 17° WSW 16:54:02 17° WSW 16:56:33 10° SSW
COSMOS 2487 2.0 16:55:13 10° SSW 16:58:11 85° ESE 17:01:07 10° NNE
Meteor 1-31 Rocket 3.3 16:54:28 10° NNE 16:58:21 66° ESE 17:02:20 10° S
Envisat 4.2 16:55:26 10° NW 16:59:16 21° W 17:03:07 10° SW
SJ-12 4.2 16:55:25 10° N 16:59:25 46° W 17:03:29 10° SSW
Landsat 4 3.6 16:56:20 10° N 17:00:05 82° WNW 17:03:55 10° SSW
Cosmos 2061 Rocket 4.3 16:58:55 10° SSW 17:05:03 47° W 17:11:02 10° NNW
Cosmos 1818 4.5 17:01:32 10° SW 17:05:56 26° WNW 17:10:19 10° NNW
Cosmos 2251 Rocket 4.1 17:01:31 10° N 17:06:42 64° ENE 17:11:59 10° SSE
ATLAS 2AS CENTAUR R/B 3.2 17:02:13 13° WNW 17:07:24 38° SW 17:13:37 10° SSE
Lacrosse 5 2.7 17:02:21 10° SW 17:07:25 53° SE 17:12:26 10° ENE
GPS 2-04 Rocket1 3.9 17:06:11 14° WNW 17:08:45 25° NNW 17:11:59 10° NE
SJ-7 4.4 17:16:18 10° N 17:20:30 82° WNW 17:24:41 10° SSW
CZ-2C R/B 4.4 17:18:13 10° NW 17:21:28 17° W 17:24:40 10° SW
CZ-4C R/B 2.6 17:17:10 10° SSW 17:22:30 58° SE 17:26:56 10° NE
GP-B 3.3 17:18:10 10° S 17:22:33 51° W 17:26:53 10° NNW
BREEZE-M DEB (TANK) 4.2 17:22:03 10° SW 17:23:24 13° SSW 17:24:34 10° SSE
SL-16 R/B 4.3 17:23:56 10° SSW 17:26:13 12° SW 17:28:29 10° WSW
Meteor 2-4 Rocket 4.5 17:21:16 10° SSW 17:26:35 35° W 17:31:53 10° NNW
Cosmos 1743 2.7 17:23:21 10° N 17:27:14 82° W 17:31:12 10° S
Cosmos 1536 2.8 17:24:36 10° N 17:28:39 83° W 17:32:44 10° S
